Location: Partizánske
(48.6285°N, 18.3769°E)
Time: 17:49:19
(UTC+02:00)

Transit 4A - Visible Passes

Search period start: 29 June 2022 00:00
Search period end: 09 July 2022 00:00
Orbit: 864 x 980 km, 66.8° (Epoch: 28 June)

Date Brightness Start Highest point End Pass type
(mag) Time Alt. Az. Time Alt. Az. Time Alt. Az.
29 Jun 11.0 00:27:12 10° NW 00:30:59 16° NNW 00:34:45 10° NNE visible
29 Jun 11.0 02:16:12 10° NNW 02:20:04 16° NNE 02:23:52 10° NE visible
29 Jun 9.8 04:02:36 10° NNW 04:08:21 37° NE 04:13:56 10° ESE visible
29 Jun 10.3 22:46:48 10° W 22:52:11 28° NNW 22:57:33 10° NNE visible
30 Jun 11.1 00:37:21 10° NW 00:40:50 15° N 00:44:18 10° NNE visible
30 Jun 10.9 02:25:36 10° NNW 02:29:52 19° NNE 02:34:03 10° ENE visible
30 Jun 10.6 22:56:53 10° W 23:01:51 23° NNW 23:06:46 10° NNE visible
01 Jul 11.2 00:47:22 10° NNW 00:50:42 14° N 00:54:00 10° NNE visible
01 Jul 10.7 02:34:54 10° NNW 02:39:37 22° NNE 02:44:13 10° ENE visible
01 Jul 10.9 23:07:05 10° WNW 23:11:35 20° NNW 23:16:02 10° NNE visible
02 Jul 11.1 00:57:12 10° NNW 01:00:35 15° N 01:03:55 10° NE visible
02 Jul 10.3 02:44:09 10° NNW 02:49:18 26° NNE 02:54:17 10° E visible
02 Jul 9.7 21:27:11 10° WSW 21:33:10 40° NW 21:39:06 10° NNE visible
02 Jul 11.0 23:17:19 10° WNW 23:21:22 17° NNW 23:25:22 10° NNE visible
03 Jul 11.0 01:06:49 10° NNW 01:10:26 15° N 01:14:00 10° NE visible
03 Jul 9.9 02:53:23 10° NNW 02:58:54 32° NE 03:04:15 10° E visible
03 Jul 10.1 21:37:04 10° W 21:42:43 32° NW 21:48:18 10° NNE visible
03 Jul 11.0 23:27:32 10° NW 23:31:11 16° N 23:34:48 10° NNE visible
04 Jul 10.8 01:16:17 10° NNW 01:20:15 17° NNE 01:24:09 10° ENE visible
04 Jul 9.4 03:02:36 10° NNW 03:08:26 40° NE 03:14:04 10° ESE visible
04 Jul 10.5 21:47:05 10° W 21:52:20 26° NNW 21:57:31 10° NNE visible
04 Jul 11.0 23:37:39 10° NW 23:41:03 15° N 23:44:24 10° NNE visible
05 Jul 10.7 01:25:38 10° NNW 01:30:02 19° NNE 01:34:21 10° ENE visible
05 Jul 8.8 03:11:50 10° NNW 03:17:53 53° NE 03:23:44 10° ESE visible
05 Jul 10.7 21:57:13 10° WNW 22:02:01 22° NNW 22:06:45 10° NNE visible
05 Jul 10.9 23:47:36 10° NNW 23:50:55 14° N 23:54:11 10° NNE visible
06 Jul 10.4 01:34:54 10° NNW 01:39:46 23° NNE 01:44:29 10° E visible
06 Jul 8.2 03:21:05 10° NNW 03:27:16 70° NE 03:33:13 10° SE visible
06 Jul 10.8 22:07:26 10° WNW 22:11:45 19° NNW 22:16:02 10° NNE visible
06 Jul 10.8 23:57:21 10° NNW 00:00:47 15° N 00:04:09 10° NE visible
07 Jul 10.0 01:44:09 10° NNW 01:49:25 28° NNE 01:54:31 10° E visible
07 Jul 7.9 03:30:22 10° NW 03:36:33 86° WSW 03:42:31 10° SSE visible
07 Jul 10.8 22:17:40 10° NW 22:21:33 16° NNW 22:25:23 10° NNE visible
08 Jul 10.7 00:06:55 10° NNW 00:10:37 16° NNE 00:14:16 10° NE visible
08 Jul 9.6 01:53:22 10° NNW 01:58:59 34° NE 02:04:26 10° ESE visible
08 Jul 7.9 03:39:42 10° NW 03:45:47 63° WSW 03:51:37 10° SSE visible
08 Jul 10.8 22:27:52 10° NW 22:31:23 15° N 22:34:52 10° NNE visible
